| time (UTC) | temp F | wind direction | speed knots | gust knots | rain 1hr in | rain 24hr in | rain mn in | humidity % | barometer mb |
| 20260507083103 | 61 | 230 | 14.8 | 0.0 | 0.00 | 0.00 | 0.00 | 67 | 1010.0 |
| 20260507081851 | 57 | 210 | 13.9 | 0.0 | 0.00 | 0.00 | 0.00 | 71 | |
| 20260507073103 | 57 | 220 | 13.0 | 0.0 | 0.00 | 0.00 | 0.00 | 71 | 1010.0 |
| 20260507071852 | 57 | 210 | 10.4 | 0.0 | 0.00 | 0.00 | 0.00 | 76 | |
| 20260507063103 | 57 | 210 | 8.7 | 0.0 | 0.00 | 0.00 | 0.00 | 82 | 1009.0 |
| 20260507061852 | 55 | 210 | 10.4 | 0.0 | 0.00 | 0.00 | 0.00 | 82 | |
| 20260507060104 | 55 | 210 | 8.7 | 0.0 | 0.00 | 0.00 | 0.00 | 87 | 1009.0 |
| 20260507053102 | 54 | 200 | 10.4 | 0.0 | 0.00 | 0.00 | 0.00 | 87 | 1009.0 |
| 20260507051851 | 54 | 190 | 7.8 | 0.0 | 0.00 | 0.00 | 0.00 | 87 | |
| 20260507050104 | 54 | 190 | 7.0 | 0.0 | 0.00 | 0.00 | 0.00 | 87 | 1009.0 |
| 20260507043103 | 52 | 200 | 7.0 | 0.0 | 0.00 | 0.00 | 0.00 | 93 | 1008.0 |
| 20260507042056 | 52 | 210 | 10.4 | 0.0 | 0.00 | 0.00 | 0.00 | 93 | |
| 20260507033103 | 52 | 200 | 7.8 | 0.0 | 0.00 | 0.00 | 0.00 | 93 | 1008.0 |
| 20260507031852 | 52 | 210 | 7.8 | 0.0 | 0.00 | 0.00 | 0.00 | 93 | |
| 20260507030210 | 52 | 210 | 7.0 | 0.0 | 0.00 | 0.00 | 0.00 | 93 | 1008.0 |
| 20260507023103 | 54 | 210 | 7.8 | 0.0 | 0.00 | 0.00 | 0.00 | 93 | 1008.0 |
| 20260507021902 | 54 | 210 | 7.0 | 0.0 | 0.00 | 0.00 | 0.00 | 93 | 1008.0 |
| 20260507021850 | 54 | 200 | 7.8 | 0.0 | 0.00 | 0.00 | 0.00 | 93 | |
| 20260507020511 | 54 | 200 | 7.8 | 0.0 | 0.00 | 0.00 | 0.00 | 93 | 1008.0 |
| 20260507020210 | 54 | 200 | 7.8 | 0.0 | 0.00 | 0.00 | 0.00 | 93 | 1008.0 |
| 20260507015803 | 54 | 200 | 8.7 | 0.0 | 0.00 | 0.00 | 0.00 | 100 | 1007.0 |
| 20260507014703 | 54 | 200 | 8.7 | 0.0 | 0.00 | 0.00 | 0.00 | 100 | 1007.0 |
| 20260507014303 | 54 | 200 | 8.7 | 0.0 | 0.00 | 0.00 | 0.00 | 100 | 1007.0 |
| 20260507013102 | 54 | 180 | 5.2 | 0.0 | 0.00 | 0.00 | 0.00 | 100 | 1007.0 |
| 20260507011951 | 55 | 220 | 7.8 | 0.0 | 0.00 | 0.00 | 0.00 | 93 | |
| 20260507010212 | 55 | 220 | 7.0 | 0.0 | 0.00 | 0.00 | 0.00 | 93 | 1007.0 |
| 20260507003102 | 55 | 200 | 6.1 | 0.0 | 0.00 | 0.00 | 0.00 | 93 | 1007.0 |
| 20260507001851 | 55 | 250 | 4.3 | 0.0 | 0.00 | 0.00 | 0.00 | 93 | |
| 20260506233102 | 55 | 230 | 5.2 | 0.0 | 0.00 | 0.00 | 0.00 | 100 | 1006.0 |
| 20260506231853 | 55 | 220 | 6.1 | 0.0 | 0.00 | 0.00 | 0.00 | 93 | |
| 20260506230211 | 55 | 220 | 6.1 | 0.0 | 0.00 | 0.00 | 0.00 | 100 | 1006.0 |
| 20260506223103 | 55 | 170 | 4.3 | 0.0 | 0.00 | 0.00 | 0.00 | 93 | 1006.0 |
| 20260506222051 | 55 | 130 | 6.1 | 0.0 | 0.00 | 0.00 | 0.00 | 93 | |
| 20260506220210 | 55 | 120 | 6.1 | 0.0 | 0.00 | 0.00 | 0.00 | 100 | 1006.0 |
| 20260506213103 | 57 | 150 | 6.1 | 0.0 | 0.00 | 0.00 | 0.00 | 93 | 1006.0 |
| 20260506211851 | 57 | 180 | 6.1 | 0.0 | 0.00 | 0.00 | 0.00 | 87 | |
| 20260506203102 | 57 | 130 | 6.1 | 0.0 | 0.00 | 0.00 | 0.00 | 87 | 1005.0 |
| 20260506201924 | 57 | 240 | 1.7 | 0.0 | 0.00 | 0.00 | 0.00 | 82 | |
| 20260506200303 | 57 | 0 | 1.7 | 0.0 | 0.00 | 0.00 | 0.00 | 87 | 1005.0 |
| 20260506194402 | 57 | 50 | 4.3 | 0.0 | 0.00 | 0.00 | 0.00 | 87 | 1005.0 |
| 20260506193103 | 59 | 0 | 1.7 | 0.0 | 0.00 | 0.00 | 0.00 | 87 | 1005.0 |
| 20260506192306 | 59 | 320 | 2.6 | 0.0 | 0.00 | 0.00 | 0.00 | 82 | 1005.0 |
| 20260506192032 | 59 | 80 | 4.3 | 0.0 | 0.00 | 0.00 | 0.00 | 82 | |
| 20260506190217 | 59 | 50 | 2.6 | 0.0 | 0.00 | 0.00 | 0.00 | 82 | 1005.0 |
| 20260506183103 | 59 | 70 | 6.1 | 0.0 | 0.00 | 0.00 | 0.00 | 82 | 1004.0 |
| 20260506181940 | 59 | 70 | 6.1 | 0.0 | 0.00 | 0.00 | 0.00 | 82 | |
| 20260506180104 | 61 | 50 | 4.3 | 0.0 | 0.00 | 0.00 | 0.00 | 77 | 1004.0 |
| 20260506173102 | 61 | 70 | 4.3 | 0.0 | 0.00 | 0.00 | 0.00 | 77 | 1004.0 |
| 20260506171851 | 61 | 70 | 4.3 | 0.0 | 0.00 | 0.00 | 0.00 | 72 | |
| 20260506170103 | 63 | 60 | 4.3 | 0.0 | 0.00 | 0.00 | 0.00 | 67 | 1004.0 |
| 20260506163103 | 61 | 90 | 6.1 | 0.0 | 0.00 | 0.00 | 0.00 | 82 | 1004.0 |
| 20260506162108 | 61 | 190 | 4.3 | 0.0 | 0.00 | 0.00 | 0.00 | 72 | |
| 20260506160212 | 61 | 260 | 5.2 | 0.0 | 0.00 | 0.00 | 0.00 | 72 | 1005.0 |
| 20260506153511 | 64 | 290 | 7.0 | 0.0 | 0.00 | 0.00 | 0.00 | 63 | 1004.0 |
| 20260506153102 | 66 | 310 | 6.1 | 0.0 | 0.00 | 0.00 | 0.00 | 59 | 1004.0 |
| 20260506151923 | 66 | 310 | 6.1 | 0.0 | 0.00 | 0.00 | 0.00 | 55 | |
| 20260506143102 | 68 | 340 | 5.2 | 0.0 | 0.00 | 0.00 | 0.00 | 52 | 1005.0 |
| 20260506141909 | 70 | 10 | 4.3 | 0.0 | 0.00 | 0.00 | 0.00 | 46 | |
| 20260506140210 | 70 | 0 | 1.7 | 0.0 | 0.00 | 0.00 | 0.00 | 46 | 1005.0 |
| 20260506133102 | 70 | 240 | 5.2 | 0.0 | 0.00 | 0.00 | 0.00 | 46 | 1005.0 |
| 20260506131908 | 70 | 210 | 4.3 | 0.0 | 0.00 | 0.00 | 0.00 | 46 | |
| 20260506130103 | 70 | 220 | 5.2 | 0.0 | 0.00 | 0.00 | 0.00 | 49 | 1005.0 |
| 20260506123103 | 68 | 220 | 2.6 | 0.0 | 0.00 | 0.00 | 0.00 | 49 | 1006.0 |
| 20260506121908 | 68 | 220 | 7.8 | 0.0 | 0.00 | 0.00 | 0.00 | 49 | |
| 20260506120103 | 68 | 250 | 7.0 | 0.0 | 0.00 | 0.00 | 0.00 | 52 | 1006.0 |
| 20260506113103 | 68 | 230 | 8.7 | 0.0 | 0.00 | 0.00 | 0.00 | 52 | 1006.0 |
| 20260506111854 | 66 | 230 | 7.8 | 0.0 | 0.00 | 0.00 | 0.00 | 52 | |
| 20260506110103 | 66 | 230 | 8.7 | 0.0 | 0.00 | 0.00 | 0.00 | 55 | 1006.0 |
| 20260506103103 | 66 | 220 | 10.4 | 0.0 | 0.00 | 0.00 | 0.00 | 59 | 1007.0 |
| 20260506102055 | 64 | 210 | 10.4 | 0.0 | 0.00 | 0.00 | 0.00 | 59 | |
| 20260506093103 | 64 | 220 | 8.7 | 0.0 | 0.00 | 0.00 | 0.00 | 59 | 1007.0 |
| 20260506091853 | 63 | 210 | 10.4 | 0.0 | 0.00 | 0.00 | 0.00 | 63 |